TimeEDT,TemperatureF,Dew PointF,Humidity,Sea Level PressureIn,VisibilityMPH,Wind Direction,Wind SpeedMPH,Gust SpeedMPH,PrecipitationIn,Events,Conditions,WindDirDegrees,DateUTC
12:15 AM,62.6,59.0,88,30.27,10.0,Calm,Calm,-,N/A,,Clear,0,2013-06-22 04:15:00
12:35 AM,62.6,57.2,82,30.27,10.0,SE,3.5,-,N/A,,Clear,130,2013-06-22 04:35:00
12:55 AM,60.8,57.2,88,30.26,10.0,Calm,Calm,-,N/A,,Clear,0,2013-06-22 04:55:00
1:15 AM,60.8,57.2,88,30.26,10.0,SE,3.5,-,N/A,,Clear,140,2013-06-22 05:15:00
1:35 AM,62.6,59.0,88,30.25,10.0,ESE,3.5,-,N/A,,Clear,120,2013-06-22 05:35:00
1:55 AM,62.6,59.0,88,30.25,10.0,Calm,Calm,-,N/A,,Clear,0,2013-06-22 05:55:00
2:15 AM,60.8,57.2,88,30.25,10.0,Calm,Calm,-,N/A,,Clear,0,2013-06-22 06:15:00
2:35 AM,59.0,55.4,88,30.27,10.0,Calm,Calm,-,N/A,,Clear,0,2013-06-22 06:35:00
2:55 AM,57.2,55.4,94,30.25,10.0,Calm,Calm,-,N/A,,Clear,0,2013-06-22 06:55:00
3:15 AM,57.2,55.4,94,30.25,10.0,Calm,Calm,-,N/A,,Clear,0,2013-06-22 07:15:00
3:35 AM,57.2,53.6,88,30.25,10.0,Calm,Calm,-,N/A,,Clear,0,2013-06-22 07:35:00
3:55 AM,57.2,53.6,88,30.26,10.0,Calm,Calm,-,N/A,,Clear,0,2013-06-22 07:55:00
4:15 AM,55.4,53.6,94,30.26,10.0,Calm,Calm,-,N/A,,Clear,0,2013-06-22 08:15:00
4:35 AM,57.2,53.6,88,30.26,10.0,Calm,Calm,-,N/A,,Clear,0,2013-06-22 08:35:00
4:55 AM,57.2,53.6,88,30.27,10.0,Calm,Calm,-,N/A,,Clear,0,2013-06-22 08:55:00
5:15 AM,57.2,53.6,88,30.27,10.0,Calm,Calm,-,N/A,,Clear,0,2013-06-22 09:15:00
5:35 AM,55.4,53.6,94,30.27,10.0,Calm,Calm,-,N/A,,Clear,0,2013-06-22 09:35:00
5:55 AM,55.4,53.6,94,30.27,10.0,Calm,Calm,-,N/A,,Clear,0,2013-06-22 09:55:00
6:15 AM,55.4,53.6,94,30.27,10.0,Calm,Calm,-,N/A,,Clear,0,2013-06-22 10:15:00
6:35 AM,57.2,53.6,88,30.27,10.0,Calm,Calm,-,N/A,,Clear,0,2013-06-22 10:35:00
6:55 AM,60.8,57.2,88,30.28,10.0,Calm,Calm,-,N/A,,Clear,0,2013-06-22 10:55:00
7:15 AM,62.6,60.8,94,30.28,10.0,Calm,Calm,-,N/A,,Clear,0,2013-06-22 11:15:00
7:35 AM,66.2,62.6,88,30.28,10.0,SE,3.5,-,N/A,,Clear,130,2013-06-22 11:35:00
7:55 AM,66.2,62.6,88,30.28,10.0,Calm,Calm,-,N/A,,Clear,0,2013-06-22 11:55:00
8:15 AM,68.0,62.6,83,30.27,10.0,ESE,3.5,-,N/A,,Clear,120,2013-06-22 12:15:00
8:35 AM,69.8,62.6,78,30.27,10.0,SE,3.5,-,N/A,,Clear,130,2013-06-22 12:35:00
8:55 AM,71.6,62.6,73,30.27,10.0,SE,4.6,-,N/A,,Clear,130,2013-06-22 12:55:00
9:15 AM,71.6,62.6,73,30.26,10.0,Calm,Calm,-,N/A,,Clear,0,2013-06-22 13:15:00
9:35 AM,71.6,57.2,60,30.26,10.0,North,3.5,-,N/A,,Clear,10,2013-06-22 13:35:00
9:55 AM,73.4,57.2,57,30.26,10.0,Calm,Calm,-,N/A,,Clear,0,2013-06-22 13:55:00
10:15 AM,75.2,57.2,53,30.27,10.0,Calm,Calm,-,N/A,,Clear,0,2013-06-22 14:15:00
10:35 AM,75.2,57.2,53,30.27,10.0,Calm,Calm,-,N/A,,Clear,0,2013-06-22 14:35:00
10:55 AM,75.2,59.0,57,30.28,10.0,West,5.8,-,N/A,,Clear,270,2013-06-22 14:55:00
11:15 AM,75.2,60.8,61,30.28,10.0,WNW,5.8,-,N/A,,Clear,290,2013-06-22 15:15:00
11:35 AM,75.2,60.8,61,30.29,10.0,West,6.9,-,N/A,,Clear,260,2013-06-22 15:35:00
11:55 AM,75.2,60.8,61,30.29,10.0,Calm,Calm,-,N/A,,Partly Cloudy,0,2013-06-22 15:55:00
12:15 PM,75.2,64.4,69,30.29,10.0,SE,3.5,-,N/A,,Scattered Clouds,130,2013-06-22 16:15:00
12:35 PM,75.2,62.6,65,30.29,10.0,ESE,6.9,-,N/A,,Partly Cloudy,120,2013-06-22 16:35:00
12:55 PM,75.2,64.4,69,30.29,10.0,SE,9.2,-,N/A,,Clear,140,2013-06-22 16:55:00
1:15 PM,75.2,62.6,65,30.28,10.0,SSE,8.1,-,N/A,,Clear,150,2013-06-22 17:15:00
1:35 PM,75.2,62.6,65,30.27,10.0,SE,9.2,-,N/A,,Clear,140,2013-06-22 17:35:00
1:55 PM,75.2,60.8,61,30.27,10.0,ESE,10.4,-,N/A,,Clear,120,2013-06-22 17:55:00
2:15 PM,75.2,60.8,61,30.27,10.0,SSE,9.2,-,N/A,,Clear,150,2013-06-22 18:15:00
2:35 PM,77.0,60.8,57,30.27,10.0,SSE,8.1,-,N/A,,Clear,160,2013-06-22 18:35:00
2:55 PM,77.0,59.0,54,30.27,10.0,SSE,9.2,-,N/A,,Clear,160,2013-06-22 18:55:00
3:15 PM,77.0,59.0,54,30.26,10.0,SSE,9.2,-,N/A,,Clear,160,2013-06-22 19:15:00
3:35 PM,75.2,57.2,53,30.25,10.0,SSE,8.1,-,N/A,,Clear,150,2013-06-22 19:35:00
3:55 PM,77.0,57.2,50,30.24,10.0,SE,9.2,-,N/A,,Clear,140,2013-06-22 19:55:00
4:15 PM,77.0,55.4,47,30.23,10.0,SE,9.2,-,N/A,,Clear,130,2013-06-22 20:15:00
4:35 PM,75.2,57.2,53,30.23,10.0,SE,10.4,-,N/A,,Clear,130,2013-06-22 20:35:00
4:55 PM,75.2,57.2,53,30.22,10.0,SSE,11.5,-,N/A,,Clear,160,2013-06-22 20:55:00
5:15 PM,75.2,57.2,53,30.22,10.0,SSE,12.7,-,N/A,,Clear,160,2013-06-22 21:15:00
5:35 PM,75.2,55.4,50,30.21,10.0,SSE,11.5,-,N/A,,Clear,150,2013-06-22 21:35:00
5:55 PM,75.2,55.4,50,30.21,10.0,South,10.4,-,N/A,,Clear,170,2013-06-22 21:55:00
6:15 PM,73.4,55.4,53,30.21,10.0,SSE,10.4,-,N/A,,Clear,150,2013-06-22 22:15:00
6:35 PM,73.4,55.4,53,30.21,10.0,SSE,11.5,-,N/A,,Clear,160,2013-06-22 22:35:00
6:55 PM,71.6,57.2,60,30.21,10.0,SSE,11.5,-,N/A,,Clear,160,2013-06-22 22:55:00
7:15 PM,71.6,57.2,60,30.20,10.0,SSE,10.4,-,N/A,,Clear,160,2013-06-22 23:15:00
7:35 PM,71.6,55.4,57,30.19,10.0,South,10.4,-,N/A,,Clear,170,2013-06-22 23:35:00
7:55 PM,71.6,53.6,53,30.20,10.0,South,11.5,-,N/A,,Clear,180,2013-06-22 23:55:00
8:15 PM,69.8,53.6,56,30.19,10.0,South,13.8,-,N/A,,Clear,190,2013-06-23 00:15:00
8:35 PM,69.8,55.4,60,30.19,10.0,South,11.5,17.3,N/A,,Clear,190,2013-06-23 00:35:00
8:55 PM,69.8,55.4,60,30.19,10.0,South,11.5,-,N/A,,Clear,190,2013-06-23 00:55:00
9:15 PM,69.8,53.6,56,30.19,10.0,South,11.5,-,N/A,,Clear,190,2013-06-23 01:15:00
9:35 PM,69.8,53.6,56,30.20,10.0,South,8.1,-,N/A,,Clear,190,2013-06-23 01:35:00
9:55 PM,69.8,55.4,60,30.21,10.0,South,8.1,-,N/A,,Clear,190,2013-06-23 01:55:00
10:15 PM,69.8,57.2,64,30.21,10.0,South,6.9,-,N/A,,Clear,180,2013-06-23 02:15:00
10:35 PM,69.8,57.2,64,30.20,10.0,South,9.2,-,N/A,,Clear,190,2013-06-23 02:35:00
10:55 PM,69.8,57.2,64,30.20,10.0,SSW,8.1,-,N/A,,Clear,200,2013-06-23 02:55:00
11:15 PM,69.8,57.2,64,30.20,10.0,SSW,8.1,-,N/A,,Clear,200,2013-06-23 03:15:00
11:35 PM,68.0,57.2,68,30.21,10.0,South,6.9,-,N/A,,Clear,190,2013-06-23 03:35:00
11:55 PM,68.0,57.2,68,30.21,10.0,SSW,4.6,-,N/A,,Clear,200,2013-06-23 03:55:00